User: anonymous   Login
Location: Dayton
(39.7590°N, 84.1920°W)
Time: 16:40:45
(UTC-05:00)
Language:

Cosmos 1939 Rocket - Orbit

View from above orbital plane
View from above orbital plane
View from above satellite
View from above satellite

Ground track
Ground track

The orbit data is extracted from the following two-line orbital elements,

1 19046U 88032B   14352.48041685  .00003693  00000-0  29545-3 0   778
2 19046 097.6204 043.5986 0038756 189.5472 170.5020 15.00225671435826
Epoch (UTC): 18 December 2014 11:31:48
Eccentricity: 0.0038756
inclination: 97.6204°
perigee height: 539 km
apogee height: 593 km
right ascension of ascending node: 43.5986°
argument of perigee: 189.5472°
revolutions per day: 15.00225671
mean anomaly at epoch: 170.5020°
orbit number at epoch: 43582

The dashed part of the orbit path shows where the satellite is in the earth's shadow,  

DLR